Wetterdaten: Freitag, 01.01.2016
Datum Zeit Temp. A. Feuchte A. Luftdruck Regen Wind Richtung Richtung Sonnenschein ET UV Solar Taupunkt Windchill Windben Empfang
01.01.2016 00:00 -1,4 C 92 % 1027,8 hPa 0,0 l/m 0,1 km/h (0 Bft) NO 48 0 min 0,000 mm 0,0 UV-I 0 W/m -2,5 C -1,4 C 1,6 km/h (1 Bft) 98,35 %
01.01.2016 00:05 -1,3 C 93 % 1027,8 hPa 0,0 l/m 0,0 km/h (0 Bft) NO 48 0 min 0,000 mm 0,0 UV-I 0 W/m -2,3 C -1,3 C 0,0 km/h (0 Bft) 99,13 %
01.01.2016 00:10 -1,3 C 92 % 1027,7 hPa 0,0 l/m 0,0 km/h (0 Bft) NO 48 0 min 0,000 mm 0,0 UV-I 0 W/m -2,4 C -1,3 C 0,0 km/h (0 Bft) 97,17 %
01.01.2016 00:15 -1,3 C 93 % 1027,7 hPa 0,0 l/m 0,0 km/h (0 Bft) NO 48 0 min 0,000 mm 0,0 UV-I 0 W/m -2,3 C -1,3 C 1,6 km/h (1 Bft) 100,00 %
01.01.2016 00:20 -1,3 C 93 % 1027,7 hPa 0,0 l/m 0,1 km/h (0 Bft) NO 48 0 min 0,000 mm 0,0 UV-I 0 W/m -2,3 C -1,3 C 1,6 km/h (1 Bft) 99,13 %
01.01.2016 00:25 -1,3 C 93 % 1027,6 hPa 0,0 l/m 0,1 km/h (0 Bft) NO 48 0 min 0,000 mm 0,0 UV-I 0 W/m -2,3 C -1,3 C 1,6 km/h (1 Bft) 98,29 %
01.01.2016 00:30 -1,3 C 94 % 1027,6 hPa 0,0 l/m 0,0 km/h (0 Bft) NO 48 0 min 0,000 mm 0,0 UV-I 0 W/m -2,1 C -1,3 C 0,0 km/h (0 Bft) 99,15 %
01.01.2016 00:35 -1,3 C 94 % 1027,6 hPa 0,0 l/m 0,0 km/h (0 Bft) NO 48 0 min 0,000 mm 0,0 UV-I 0 W/m -2,1 C -1,3 C 0,0 km/h (0 Bft) 99,11 %
01.01.2016 00:40 -1,3 C 94 % 1027,5 hPa 0,0 l/m 0,4 km/h (0 Bft) NO 47 0 min 0,000 mm 0,0 UV-I 0 W/m -2,1 C -1,3 C 1,6 km/h (1 Bft) 100,00 %
01.01.2016 00:45 -1,3 C 94 % 1027,5 hPa 0,0 l/m 0,4 km/h (0 Bft) NO 47 0 min 0,000 mm 0,0 UV-I 0 W/m -2,1 C -1,3 C 1,6 km/h (1 Bft) 97,46 %
01.01.2016 00:50 -1,3 C 94 % 1027,4 hPa 0,0 l/m 0,2 km/h (0 Bft) NO 40 0 min 0,000 mm 0,0 UV-I 0 W/m -2,1 C -1,3 C 1,6 km/h (1 Bft) 99,19 %
01.01.2016 00:55 -1,3 C 94 % 1027,4 hPa 0,0 l/m 0,1 km/h (0 Bft) NO 36 0 min 0,000 mm 0,0 UV-I 0 W/m -2,1 C -1,3 C 1,6 km/h (1 Bft) 98,21 %
01.01.2016 01:00 -1,3 C 94 % 1027,4 hPa 0,0 l/m 0,1 km/h (0 Bft) NO 36 0 min 0,000 mm 0,0 UV-I 0 W/m -2,1 C -1,3 C 1,6 km/h (1 Bft) 100,00 %
01.01.2016 01:05 -1,3 C 94 % 1027,4 hPa 0,0 l/m 0,5 km/h (0 Bft) N 10 0 min 0,000 mm 0,0 UV-I 0 W/m -2,1 C -1,3 C 1,6 km/h (1 Bft) 98,33 %
01.01.2016 01:10 -1,3 C 94 % 1027,5 hPa 0,0 l/m 0,5 km/h (0 Bft) N 9 0 min 0,000 mm 0,0 UV-I 0 W/m -2,1 C -1,3 C 1,6 km/h (1 Bft) 100,00 %
01.01.2016 01:15 -1,3 C 94 % 1027,5 hPa 0,0 l/m 0,8 km/h (0 Bft) N 5 0 min 0,000 mm 0,0 UV-I 0 W/m -2,1 C -1,3 C 3,2 km/h (1 Bft) 96,43 %
01.01.2016 01:20 -1,3 C 94 % 1027,4 hPa 0,0 l/m 0,8 km/h (0 Bft) N-NW 347 0 min 0,000 mm 0,0 UV-I 0 W/m -2,1 C -1,3 C 3,2 km/h (1 Bft) 95,73 %
01.01.2016 01:25 -1,3 C 94 % 1027,4 hPa 0,0 l/m 0,2 km/h (0 Bft) N-NO 32 0 min 0,000 mm 0,0 UV-I 0 W/m -2,1 C -1,3 C 1,6 km/h (1 Bft) 98,31 %
01.01.2016 01:30 -1,4 C 94 % 1027,5 hPa 0,0 l/m 0,5 km/h (0 Bft) N-NO 21 0 min 0,000 mm 0,0 UV-I 0 W/m -2,2 C -1,4 C 4,8 km/h (1 Bft) 97,25 %
01.01.2016 01:35 -1,4 C 94 % 1027,4 hPa 0,0 l/m 0,7 km/h (0 Bft) N-NO 19 0 min 0,000 mm 0,0 UV-I 0 W/m -2,2 C -1,4 C 4,8 km/h (1 Bft) 97,56 %
01.01.2016 01:40 -1,4 C 94 % 1027,3 hPa 0,0 l/m 1,5 km/h (1 Bft) N-NO 22 0 min 0,000 mm 0,0 UV-I 0 W/m -2,2 C -1,4 C 4,8 km/h (1 Bft) 96,61 %
01.01.2016 01:45 -1,4 C 94 % 1027,3 hPa 0,0 l/m 1,3 km/h (1 Bft) N-NO 22 0 min 0,000 mm 0,0 UV-I 0 W/m -2,2 C -1,4 C 3,2 km/h (1 Bft) 98,20 %
01.01.2016 01:50 -1,4 C 94 % 1027,3 hPa 0,0 l/m 3,4 km/h (1 Bft) NO 39 0 min 0,000 mm 0,0 UV-I 0 W/m -2,2 C -1,4 C 4,8 km/h (1 Bft) 99,21 %
01.01.2016 01:55 -1,4 C 94 % 1027,4 hPa 0,0 l/m 2,2 km/h (1 Bft) N-NO 22 0 min 0,000 mm 0,0 UV-I 0 W/m -2,2 C -1,4 C 6,4 km/h (2 Bft) 97,39 %
01.01.2016 02:00 -1,5 C 94 % 1027,4 hPa 0,0 l/m 2,7 km/h (1 Bft) N-NO 22 0 min 0,000 mm 0,0 UV-I 0 W/m -2,3 C -1,5 C 4,8 km/h (1 Bft) 100,00 %
01.01.2016 02:05 -1,4 C 94 % 1027,4 hPa 0,0 l/m 1,6 km/h (1 Bft) N-NO 22 0 min 0,000 mm 0,0 UV-I 0 W/m -2,2 C -1,4 C 4,8 km/h (1 Bft) 100,00 %
01.01.2016 02:10 -1,4 C 95 % 1027,4 hPa 0,0 l/m 0,8 km/h (0 Bft) N-NO 22 0 min 0,000 mm 0,0 UV-I 0 W/m -2,1 C -1,4 C 3,2 km/h (1 Bft) 99,12 %
01.01.2016 02:15 -1,4 C 95 % 1027,4 hPa 0,0 l/m 1,0 km/h (0 Bft) N-NO 22 0 min 0,000 mm 0,0 UV-I 0 W/m -2,1 C -1,4 C 3,2 km/h (1 Bft) 100,00 %
01.01.2016 02:20 -1,4 C 95 % 1027,4 hPa 0,0 l/m 0,8 km/h (0 Bft) N-NO 22 0 min 0,000 mm 0,0 UV-I 0 W/m -2,1 C -1,4 C 3,2 km/h (1 Bft) 98,26 %
01.01.2016 02:25 -1,4 C 95 % 1027,4 hPa 0,0 l/m 2,3 km/h (1 Bft) NO 35 0 min 0,000 mm 0,0 UV-I 0 W/m -2,1 C -1,4 C 3,2 km/h (1 Bft) 99,12 %
01.01.2016 02:30 -1,4 C 95 % 1027,5 hPa 0,0 l/m 0,9 km/h (0 Bft) NO 35 0 min 0,000 mm 0,0 UV-I 0 W/m -2,1 C -1,4 C 3,2 km/h (1 Bft) 100,00 %
01.01.2016 02:35 -1,4 C 95 % 1027,5 hPa 0,0 l/m 0,1 km/h (0 Bft) N-NO 20 0 min 0,000 mm 0,0 UV-I 0 W/m -2,1 C -1,4 C 1,6 km/h (1 Bft) 98,26 %
01.01.2016 02:40 -1,4 C 95 % 1027,5 hPa 0,0 l/m 0,2 km/h (0 Bft) N-NO 20 0 min 0,000 mm 0,0 UV-I 0 W/m -2,1 C -1,4 C 1,6 km/h (1 Bft) 99,15 %
01.01.2016 02:45 -1,5 C 95 % 1027,4 hPa 0,0 l/m 1,2 km/h (1 Bft) N-NO 20 0 min 0,000 mm 0,0 UV-I 0 W/m -2,2 C -1,5 C 3,2 km/h (1 Bft) 100,00 %
01.01.2016 02:50 -1,4 C 95 % 1027,4 hPa 0,0 l/m 2,5 km/h (1 Bft) NO 34 0 min 0,000 mm 0,0 UV-I 0 W/m -2,1 C -1,4 C 4,8 km/h (1 Bft) 98,35 %
01.01.2016 02:55 -1,4 C 95 % 1027,4 hPa 0,0 l/m 2,6 km/h (1 Bft) NO 53 0 min 0,000 mm 0,0 UV-I 0 W/m -2,1 C -1,4 C 4,8 km/h (1 Bft) 100,00 %
01.01.2016 03:00 -1,4 C 95 % 1027,3 hPa 0,0 l/m 3,7 km/h (1 Bft) O-NO 63 0 min 0,000 mm 0,0 UV-I 0 W/m -2,1 C -1,4 C 4,8 km/h (1 Bft) 100,00 %
01.01.2016 03:05 -1,3 C 95 % 1027,3 hPa 0,0 l/m 2,8 km/h (1 Bft) O-NO 63 0 min 0,000 mm 0,0 UV-I 0 W/m -2,0 C -1,3 C 4,8 km/h (1 Bft) 100,00 %
01.01.2016 03:10 -1,3 C 95 % 1027,4 hPa 0,0 l/m 2,4 km/h (1 Bft) O-NO 63 0 min 0,000 mm 0,0 UV-I 0 W/m -2,0 C -1,3 C 3,2 km/h (1 Bft) 100,00 %
01.01.2016 03:15 -1,4 C 94 % 1027,4 hPa 0,0 l/m 2,6 km/h (1 Bft) O-NO 63 0 min 0,000 mm 0,0 UV-I 0 W/m -2,2 C -1,4 C 4,8 km/h (1 Bft) 99,17 %
01.01.2016 03:20 -1,4 C 94 % 1027,4 hPa 0,0 l/m 2,6 km/h (1 Bft) O-NO 63 0 min 0,000 mm 0,0 UV-I 0 W/m -2,2 C -1,4 C 4,8 km/h (1 Bft) 98,25 %
01.01.2016 03:25 -1,4 C 94 % 1027,5 hPa 0,0 l/m 3,6 km/h (1 Bft) O-NO 58 0 min 0,000 mm 0,0 UV-I 0 W/m -2,2 C -1,4 C 4,8 km/h (1 Bft) 94,78 %
01.01.2016 03:30 -1,4 C 94 % 1027,5 hPa 0,0 l/m 2,3 km/h (1 Bft) O-NO 58 0 min 0,000 mm 0,0 UV-I 0 W/m -2,2 C -1,4 C 3,2 km/h (1 Bft) 96,52 %
01.01.2016 03:35 -1,4 C 94 % 1027,5 hPa 0,0 l/m 1,4 km/h (1 Bft) O-NO 58 0 min 0,000 mm 0,0 UV-I 0 W/m -2,2 C -1,4 C 3,2 km/h (1 Bft) 97,44 %
01.01.2016 03:40 -1,4 C 94 % 1027,5 hPa 0,0 l/m 1,2 km/h (1 Bft) O-NO 58 0 min 0,000 mm 0,0 UV-I 0 W/m -2,2 C -1,4 C 3,2 km/h (1 Bft) 98,26 %
01.01.2016 03:45 -1,4 C 95 % 1027,5 hPa 0,0 l/m 0,7 km/h (0 Bft) O-NO 58 0 min 0,000 mm 0,0 UV-I 0 W/m -2,1 C -1,4 C 3,2 km/h (1 Bft) 94,87 %
01.01.2016 03:50 -1,4 C 94 % 1027,4 hPa 0,0 l/m 0,5 km/h (0 Bft) O-NO 58 0 min 0,000 mm 0,0 UV-I 0 W/m -2,2 C -1,4 C 3,2 km/h (1 Bft) 98,43 %
01.01.2016 03:55 -1,4 C 95 % 1027,4 hPa 0,0 l/m 2,2 km/h (1 Bft) O-NO 58 0 min 0,000 mm 0,0 UV-I 0 W/m -2,1 C -1,4 C 3,2 km/h (1 Bft) 100,00 %
01.01.2016 04:00 -1,4 C 95 % 1027,5 hPa 0,0 l/m 0,9 km/h (0 Bft) O-NO 58 0 min 0,000 mm 0,0 UV-I 0 W/m -2,1 C -1,4 C 3,2 km/h (1 Bft) 96,83 %
01.01.2016 04:05 -1,4 C 95 % 1027,5 hPa 0,0 l/m 0,0 km/h (0 Bft) O-NO 58 0 min 0,000 mm 0,0 UV-I 0 W/m -2,1 C -1,4 C 0,0 km/h (0 Bft) 100,00 %
01.01.2016 04:10 -1,3 C 95 % 1027,4 hPa 0,0 l/m 0,4 km/h (0 Bft) O-NO 58 0 min 0,000 mm 0,0 UV-I 0 W/m -2,0 C -1,3 C 1,6 km/h (1 Bft) 100,00 %
01.01.2016 04:15 -1,3 C 95 % 1027,5 hPa 0,0 l/m 0,9 km/h (0 Bft) O-NO 58 0 min 0,000 mm 0,0 UV-I 0 W/m -2,0 C -1,3 C 3,2 km/h (1 Bft) 97,50 %
01.01.2016 04:20 -1,3 C 95 % 1027,5 hPa 0,0 l/m 0,0 km/h (0 Bft) O-NO 58 0 min 0,000 mm 0,0 UV-I 0 W/m -2,0 C -1,3 C 0,0 km/h (0 Bft) 98,39 %
01.01.2016 04:25 -1,3 C 95 % 1027,4 hPa 0,0 l/m 0,8 km/h (0 Bft) O-NO 58 0 min 0,000 mm 0,0 UV-I 0 W/m -2,0 C -1,3 C 3,2 km/h (1 Bft) 99,10 %
01.01.2016 04:30 -1,3 C 95 % 1027,5 hPa 0,0 l/m 0,4 km/h (0 Bft) O-NO 58 0 min 0,000 mm 0,0 UV-I 0 W/m -2,0 C -1,3 C 1,6 km/h (1 Bft) 99,17 %
01.01.2016 04:35 -1,3 C 95 % 1027,4 hPa 0,0 l/m 0,0 km/h (0 Bft) O-NO 58 0 min 0,000 mm 0,0 UV-I 0 W/m -2,0 C -1,3 C 0,0 km/h (0 Bft) 100,00 %
01.01.2016 04:40 -1,3 C 95 % 1027,4 hPa 0,0 l/m 0,0 km/h (0 Bft) O-NO 58 0 min 0,000 mm 0,0 UV-I 0 W/m -2,0 C -1,3 C 0,0 km/h (0 Bft) 99,24 %
01.01.2016 04:45 -1,3 C 95 % 1027,5 hPa 0,0 l/m 0,0 km/h (0 Bft) O-NO 58 0 min 0,000 mm 0,0 UV-I 0 W/m -2,0 C -1,3 C 0,0 km/h (0 Bft) 98,21 %
01.01.2016 04:50 -1,3 C 95 % 1027,5 hPa 0,0 l/m 0,0 km/h (0 Bft) O-NO 58 0 min 0,000 mm 0,0 UV-I 0 W/m -2,0 C -1,3 C 0,0 km/h (0 Bft) 99,19 %
01.01.2016 04:55 -1,3 C 95 % 1027,5 hPa 0,0 l/m 0,0 km/h (0 Bft) O-NO 58 0 min 0,000 mm 0,0 UV-I 0 W/m -2,0 C -1,3 C 0,0 km/h (0 Bft) 99,15 %
01.01.2016 05:00 -1,2 C 95 % 1027,4 hPa 0,0 l/m 0,1 km/h (0 Bft) O-NO 58 0 min 0,000 mm 0,0 UV-I 0 W/m -1,9 C -1,2 C 1,6 km/h (1 Bft) 100,00 %
01.01.2016 05:05 -1,2 C 95 % 1027,5 hPa 0,0 l/m 0,1 km/h (0 Bft) O-NO 58 0 min 0,000 mm 0,0 UV-I 0 W/m -1,9 C -1,2 C 1,6 km/h (1 Bft) 99,12 %
01.01.2016 05:10 -1,2 C 95 % 1027,4 hPa 0,0 l/m 0,4 km/h (0 Bft) O-NO 58 0 min 0,000 mm 0,0 UV-I 0 W/m -1,9 C -1,2 C 1,6 km/h (1 Bft) 100,00 %
01.01.2016 05:15 -1,2 C 95 % 1027,5 hPa 0,0 l/m 0,2 km/h (0 Bft) O-NO 58 0 min 0,000 mm 0,0 UV-I 0 W/m -1,9 C -1,2 C 1,6 km/h (1 Bft) 99,15 %
01.01.2016 05:20 -1,2 C 95 % 1027,5 hPa 0,0 l/m 0,0 km/h (0 Bft) O-NO 58 0 min 0,000 mm 0,0 UV-I 0 W/m -1,9 C -1,2 C 0,0 km/h (0 Bft) 98,37 %
01.01.2016 05:25 -1,2 C 95 % 1027,5 hPa 0,0 l/m 0,1 km/h (0 Bft) O-NO 58 0 min 0,000 mm 0,0 UV-I 0 W/m -1,9 C -1,2 C 1,6 km/h (1 Bft) 97,46 %
01.01.2016 05:30 -1,2 C 95 % 1027,5 hPa 0,0 l/m 0,0 km/h (0 Bft) O-NO 58 0 min 0,000 mm 0,0 UV-I 0 W/m -1,9 C -1,2 C 1,6 km/h (1 Bft) 96,40 %
01.01.2016 05:35 -1,2 C 95 % 1027,5 hPa 0,0 l/m 0,0 km/h (0 Bft) O-NO 58 0 min 0,000 mm 0,0 UV-I 0 W/m -1,9 C -1,2 C 0,0 km/h (0 Bft) 96,43 %
01.01.2016 05:40 -1,1 C 95 % 1027,6 hPa 0,0 l/m 0,0 km/h (0 Bft) O-NO 58 0 min 0,000 mm 0,0 UV-I 0 W/m -1,8 C -1,1 C 0,0 km/h (0 Bft) 97,52 %
01.01.2016 05:45 -1,1 C 95 % 1027,7 hPa 0,0 l/m 0,0 km/h (0 Bft) O-NO 58 0 min 0,000 mm 0,0 UV-I 0 W/m -1,8 C -1,1 C 0,0 km/h (0 Bft) 95,83 %
01.01.2016 05:50 -1,1 C 95 % 1027,7 hPa 0,0 l/m 0,0 km/h (0 Bft) O-NO 58 0 min 0,000 mm 0,0 UV-I 0 W/m -1,8 C -1,1 C 1,6 km/h (1 Bft) 96,33 %
01.01.2016 05:55 -1,2 C 96 % 1027,7 hPa 0,0 l/m 0,0 km/h (0 Bft) O-NO 58 0 min 0,000 mm 0,0 UV-I 0 W/m -1,8 C -1,2 C 0,0 km/h (0 Bft) 98,39 %
01.01.2016 06:00 -1,2 C 96 % 1027,7 hPa 0,0 l/m 0,0 km/h (0 Bft) O-NO 58 0 min 0,000 mm 0,0 UV-I 0 W/m -1,8 C -1,2 C 1,6 km/h (1 Bft) 99,17 %
01.01.2016 06:05 -1,2 C 96 % 1027,7 hPa 0,0 l/m 0,0 km/h (0 Bft) O-NO 58 0 min 0,000 mm 0,0 UV-I 0 W/m -1,8 C -1,2 C 0,0 km/h (0 Bft) 99,15 %
01.01.2016 06:10 -1,2 C 96 % 1027,7 hPa 0,0 l/m 0,3 km/h (0 Bft) O-NO 58 0 min 0,000 mm 0,0 UV-I 0 W/m -1,8 C -1,2 C 1,6 km/h (1 Bft) 100,00 %
01.01.2016 06:15 -1,1 C 96 % 1027,8 hPa 0,0 l/m 0,0 km/h (0 Bft) O-NO 58 0 min 0,000 mm 0,0 UV-I 0 W/m -1,7 C -1,1 C 0,0 km/h (0 Bft) 98,31 %
01.01.2016 06:20 -1,1 C 96 % 1027,9 hPa 0,0 l/m 0,6 km/h (0 Bft) O-NO 58 0 min 0,000 mm 0,0 UV-I 0 W/m -1,7 C -1,1 C 1,6 km/h (1 Bft) 99,13 %
01.01.2016 06:25 -1,1 C 96 % 1027,9 hPa 0,0 l/m 0,1 km/h (0 Bft) O-NO 58 0 min 0,000 mm 0,0 UV-I 0 W/m -1,7 C -1,1 C 1,6 km/h (1 Bft) 99,10 %
01.01.2016 06:30 -1,1 C 96 % 1027,8 hPa 0,0 l/m 1,3 km/h (1 Bft) O-NO 58 0 min 0,000 mm 0,0 UV-I 0 W/m -1,7 C -1,1 C 3,2 km/h (1 Bft) 99,17 %
01.01.2016 06:35 -1,1 C 96 % 1027,8 hPa 0,0 l/m 0,3 km/h (0 Bft) O-NO 58 0 min 0,000 mm 0,0 UV-I 0 W/m -1,7 C -1,1 C 1,6 km/h (1 Bft) 99,17 %
01.01.2016 06:40 -1,1 C 96 % 1028,0 hPa 0,0 l/m 0,2 km/h (0 Bft) O-NO 58 0 min 0,000 mm 0,0 UV-I 0 W/m -1,7 C -1,1 C 1,6 km/h (1 Bft) 100,00 %
01.01.2016 06:45 -1,0 C 96 % 1028,0 hPa 0,0 l/m 0,1 km/h (0 Bft) O-NO 58 0 min 0,000 mm 0,0 UV-I 0 W/m -1,6 C -1,0 C 1,6 km/h (1 Bft) 98,39 %
01.01.2016 06:50 -1,0 C 96 % 1028,0 hPa 0,0 l/m 0,0 km/h (0 Bft) O-NO 58 0 min 0,000 mm 0,0 UV-I 0 W/m -1,6 C -1,0 C 0,0 km/h (0 Bft) 100,00 %
01.01.2016 06:55 -1,0 C 96 % 1028,0 hPa 0,0 l/m 0,4 km/h (0 Bft) O-NO 62 0 min 0,000 mm 0,0 UV-I 0 W/m -1,6 C -1,0 C 1,6 km/h (1 Bft) 99,08 %
01.01.2016 07:00 -1,0 C 96 % 1028,0 hPa 0,0 l/m 1,9 km/h (1 Bft) O-SO 109 0 min 0,000 mm 0,0 UV-I 0 W/m -1,6 C -1,0 C 3,2 km/h (1 Bft) 99,21 %
01.01.2016 07:05 -0,9 C 96 % 1027,9 hPa 0,0 l/m 2,2 km/h (1 Bft) O-SO 110 0 min 0,000 mm 0,0 UV-I 0 W/m -1,5 C -0,9 C 3,2 km/h (1 Bft) 100,00 %
01.01.2016 07:10 -0,9 C 96 % 1027,9 hPa 0,0 l/m 1,0 km/h (0 Bft) O-SO 110 0 min 0,000 mm 0,0 UV-I 0 W/m -1,5 C -0,9 C 3,2 km/h (1 Bft) 95,87 %
01.01.2016 07:15 -0,9 C 96 % 1027,9 hPa 0,0 l/m 1,3 km/h (1 Bft) O-SO 110 0 min 0,000 mm 0,0 UV-I 0 W/m -1,5 C -0,9 C 3,2 km/h (1 Bft) 99,11 %
01.01.2016 07:20 -0,9 C 96 % 1028,0 hPa 0,0 l/m 2,8 km/h (1 Bft) S 190 0 min 0,000 mm 0,0 UV-I 0 W/m -1,5 C -0,9 C 6,4 km/h (2 Bft) 100,00 %
01.01.2016 07:25 -0,9 C 96 % 1027,9 hPa 0,0 l/m 2,3 km/h (1 Bft) S 190 0 min 0,000 mm 0,0 UV-I 0 W/m -1,5 C -0,9 C 3,2 km/h (1 Bft) 96,77 %
01.01.2016 07:30 -0,8 C 96 % 1027,9 hPa 0,0 l/m 3,2 km/h (1 Bft) S 190 0 min 0,000 mm 0,0 UV-I 0 W/m -1,4 C -0,8 C 4,8 km/h (1 Bft) 95,54 %
01.01.2016 07:35 -0,8 C 96 % 1028,0 hPa 0,0 l/m 1,5 km/h (1 Bft) S 190 0 min 0,000 mm 0,0 UV-I 0 W/m -1,4 C -0,8 C 3,2 km/h (1 Bft) 97,62 %
01.01.2016 07:40 -0,8 C 96 % 1028,0 hPa 0,0 l/m 2,0 km/h (1 Bft) SW 223 0 min 0,000 mm 0,0 UV-I 0 W/m -1,4 C -0,8 C 4,8 km/h (1 Bft) 97,25 %
01.01.2016 07:45 -0,8 C 96 % 1028,0 hPa 0,0 l/m 1,0 km/h (0 Bft) SW 223 0 min 0,000 mm 0,0 UV-I 0 W/m -1,4 C -0,8 C 3,2 km/h (1 Bft) 96,49 %
01.01.2016 07:50 -0,8 C 96 % 1028,0 hPa 0,0 l/m 0,5 km/h (0 Bft) SW 223 0 min 0,000 mm 0,0 UV-I 0 W/m -1,4 C -0,8 C 1,6 km/h (1 Bft) 96,61 %
01.01.2016 07:55 -0,8 C 96 % 1028,0 hPa 0,0 l/m 1,0 km/h (0 Bft) SW 223 0 min 0,000 mm 0,0 UV-I 0 W/m -1,4 C -0,8 C 3,2 km/h (1 Bft) 98,31 %
01.01.2016 08:00 -0,8 C 96 % 1028,1 hPa 0,0 l/m 1,3 km/h (1 Bft) SW 223 0 min 0,000 mm 0,0 UV-I 0 W/m -1,4 C -0,8 C 3,2 km/h (1 Bft) 97,50 %
01.01.2016 08:05 -0,8 C 96 % 1028,1 hPa 0,0 l/m 0,1 km/h (0 Bft) SW 223 0 min 0,000 mm 0,0 UV-I 0 W/m -1,4 C -0,8 C 1,6 km/h (1 Bft) 100,00 %
01.01.2016 08:10 -0,8 C 96 % 1028,1 hPa 0,0 l/m 0,0 km/h (0 Bft) SW 223 0 min 0,000 mm 0,0 UV-I 0 W/m -1,4 C -0,8 C 0,0 km/h (0 Bft) 98,37 %
01.01.2016 08:15 -0,8 C 96 % 1028,2 hPa 0,0 l/m 0,0 km/h (0 Bft) SW 223 0 min 0,000 mm 0,0 UV-I 4 W/m -1,4 C -0,8 C 0,0 km/h (0 Bft) 99,08 %
01.01.2016 08:20 -0,8 C 96 % 1028,1 hPa 0,0 l/m 0,5 km/h (0 Bft) SW 223 0 min 0,000 mm 0,0 UV-I 12 W/m -1,4 C -0,8 C 1,6 km/h (1 Bft) 100,00 %
01.01.2016 08:25 -0,8 C 96 % 1028,2 hPa 0,0 l/m 0,1 km/h (0 Bft) SW 223 0 min 0,000 mm 0,0 UV-I 19 W/m -1,4 C -0,8 C 1,6 km/h (1 Bft) 98,20 %
01.01.2016 08:30 -0,7 C 97 % 1028,1 hPa 0,0 l/m 0,4 km/h (0 Bft) W 273 0 min 0,000 mm 0,0 UV-I 22 W/m -1,1 C -0,7 C 3,2 km/h (1 Bft) 99,15 %
01.01.2016 08:35 -0,7 C 97 % 1028,2 hPa 0,0 l/m 0,7 km/h (0 Bft) W 273 0 min 0,000 mm 0,0 UV-I 26 W/m -1,1 C -0,7 C 3,2 km/h (1 Bft) 100,00 %
01.01.2016 08:40 -0,7 C 96 % 1028,2 hPa 0,0 l/m 1,0 km/h (0 Bft) W 273 0 min 0,000 mm 0,0 UV-I 25 W/m -1,3 C -0,7 C 3,2 km/h (1 Bft) 99,19 %
01.01.2016 08:45 -0,7 C 96 % 1028,2 hPa 0,0 l/m 0,9 km/h (0 Bft) W 273 0 min 0,000 mm 0,0 UV-I 26 W/m -1,3 C -0,7 C 1,6 km/h (1 Bft) 100,00 %
01.01.2016 08:50 -0,7 C 96 % 1028,2 hPa 0,0 l/m 0,8 km/h (0 Bft) W 273 0 min 0,000 mm 0,0 UV-I 24 W/m -1,3 C -0,7 C 3,2 km/h (1 Bft) 99,15 %
01.01.2016 08:55 -0,7 C 96 % 1028,2 hPa 0,0 l/m 1,1 km/h (1 Bft) W 273 0 min 0,000 mm 0,0 UV-I 28 W/m -1,3 C -0,7 C 1,6 km/h (1 Bft) 100,00 %
01.01.2016 09:00 -0,6 C 96 % 1028,1 hPa 0,0 l/m 0,3 km/h (0 Bft) W 273 0 min 0,000 mm 0,0 UV-I 28 W/m -1,2 C -0,6 C 1,6 km/h (1 Bft) 100,00 %
01.01.2016 09:05 -0,6 C 96 % 1028,1 hPa 0,0 l/m 0,1 km/h (0 Bft) W 273 0 min 0,000 mm 0,0 UV-I 25 W/m -1,2 C -0,6 C 1,6 km/h (1 Bft) 98,37 %
01.01.2016 09:10 -0,6 C 96 % 1028,3 hPa 0,0 l/m 0,1 km/h (0 Bft) W 273 0 min 0,000 mm 0,0 UV-I 26 W/m -1,2 C -0,6 C 1,6 km/h (1 Bft) 100,00 %
01.01.2016 09:15 -0,6 C 96 % 1028,4 hPa 0,0 l/m 0,5 km/h (0 Bft) W 273 0 min 0,000 mm 0,0 UV-I 26 W/m -1,2 C -0,6 C 1,6 km/h (1 Bft) 99,11 %
01.01.2016 09:20 -0,6 C 96 % 1028,4 hPa 0,0 l/m 0,8 km/h (0 Bft) NW 310 0 min 0,000 mm 0,0 UV-I 16 W/m -1,2 C -0,6 C 4,8 km/h (1 Bft) 99,19 %
01.01.2016 09:25 -0,6 C 96 % 1028,3 hPa 0,0 l/m 0,6 km/h (0 Bft) NW 315 0 min 0,000 mm 0,0 UV-I 30 W/m -1,2 C -0,6 C 3,2 km/h (1 Bft) 98,17 %
01.01.2016 09:30 -0,6 C 96 % 1028,3 hPa 0,0 l/m 0,3 km/h (0 Bft) NW 315 0 min 0,000 mm 0,0 UV-I 38 W/m -1,2 C -0,6 C 1,6 km/h (1 Bft) 97,32 %
01.01.2016 09:35 -0,6 C 96 % 1028,4 hPa 0,0 l/m 0,3 km/h (0 Bft) N-NW 338 0 min 0,000 mm 0,0 UV-I 34 W/m -1,2 C -0,6 C 1,6 km/h (1 Bft) 95,12 %
01.01.2016 09:40 -0,6 C 96 % 1028,4 hPa 0,0 l/m 0,8 km/h (0 Bft) N-NW 337 0 min 0,000 mm 0,0 UV-I 33 W/m -1,2 C -0,6 C 3,2 km/h (1 Bft) 98,39 %
01.01.2016 09:45 -0,6 C 96 % 1028,3 hPa 0,0 l/m 0,5 km/h (0 Bft) N 350 0 min 0,000 mm 0,0 UV-I 34 W/m -1,2 C -0,6 C 3,2 km/h (1 Bft) 96,58 %
01.01.2016 09:50 -0,6 C 96 % 1028,3 hPa 0,0 l/m 0,3 km/h (0 Bft) N-NW 347 0 min 0,000 mm 0,0 UV-I 40 W/m -1,2 C -0,6 C 3,2 km/h (1 Bft) 97,32 %
01.01.2016 09:55 -0,6 C 96 % 1028,2 hPa 0,0 l/m 0,0 km/h (0 Bft) N-NW 347 0 min 0,000 mm 0,0 UV-I 48 W/m -1,2 C -0,6 C 0,0 km/h (0 Bft) 97,46 %
01.01.2016 10:00 -0,5 C 96 % 1028,2 hPa 0,0 l/m 0,2 km/h (0 Bft) N-NW 347 0 min 0,000 mm 0,0 UV-I 56 W/m -1,1 C -0,5 C 1,6 km/h (1 Bft) 99,17 %
01.01.2016 10:05 -0,4 C 96 % 1028,3 hPa 0,0 l/m 0,5 km/h (0 Bft) N-NW 334 0 min 0,000 mm 0,0 UV-I 58 W/m -1,0 C -0,4 C 3,2 km/h (1 Bft) 98,31 %
01.01.2016 10:10 -0,4 C 96 % 1028,3 hPa 0,0 l/m 0,4 km/h (0 Bft) N-NW 333 0 min 0,000 mm 0,0 UV-I 57 W/m -1,0 C -0,4 C 3,2 km/h (1 Bft) 100,00 %
01.01.2016 10:15 -0,4 C 96 % 1028,3 hPa 0,0 l/m 0,4 km/h (0 Bft) N-NW 333 0 min 0,000 mm 0,0 UV-I 85 W/m -1,0 C -0,4 C 1,6 km/h (1 Bft) 100,00 %
01.01.2016 10:20 -0,4 C 96 % 1028,3 hPa 0,0 l/m 0,3 km/h (0 Bft) N-NW 333 0 min 0,000 mm 0,0 UV-I 74 W/m -1,0 C -0,4 C 1,6 km/h (1 Bft) 100,00 %
01.01.2016 10:25 -0,3 C 96 % 1028,4 hPa 0,0 l/m 0,0 km/h (0 Bft) N-NW 333 0 min 0,000 mm 0,0 UV-I 64 W/m -0,9 C -0,3 C 1,6 km/h (1 Bft) 100,00 %
01.01.2016 10:30 -0,3 C 96 % 1028,3 hPa 0,0 l/m 0,3 km/h (0 Bft) N-NW 342 0 min 0,000 mm 0,0 UV-I 74 W/m -0,9 C -0,3 C 3,2 km/h (1 Bft) 100,00 %
01.01.2016 10:35 -0,3 C 96 % 1028,3 hPa 0,0 l/m 0,1 km/h (0 Bft) N-NW 342 0 min 0,000 mm 0,0 UV-I 73 W/m -0,9 C -0,3 C 1,6 km/h (1 Bft) 97,64 %
01.01.2016 10:40 -0,2 C 96 % 1028,3 hPa 0,0 l/m 0,0 km/h (0 Bft) N-NW 342 0 min 0,000 mm 0,0 UV-I 53 W/m -0,8 C -0,2 C 1,6 km/h (1 Bft) 100,00 %
01.01.2016 10:45 -0,2 C 96 % 1028,3 hPa 0,0 l/m 0,8 km/h (0 Bft) N-NW 342 0 min 0,000 mm 0,0 UV-I 56 W/m -0,8 C -0,2 C 1,6 km/h (1 Bft) 100,00 %
01.01.2016 10:50 -0,2 C 96 % 1028,3 hPa 0,0 l/m 0,6 km/h (0 Bft) N-NW 329 0 min 0,000 mm 0,0 UV-I 60 W/m -0,8 C -0,2 C 3,2 km/h (1 Bft) 100,00 %
01.01.2016 10:55 -0,2 C 96 % 1028,3 hPa 0,0 l/m 0,0 km/h (0 Bft) N-NW 329 0 min 0,000 mm 0,0 UV-I 71 W/m -0,8 C -0,2 C 1,6 km/h (1 Bft) 99,06 %
01.01.2016 11:00 -0,1 C 96 % 1028,3 hPa 0,0 l/m 0,3 km/h (0 Bft) N-NW 329 0 min 0,025 mm 0,0 UV-I 58 W/m -0,7 C -0,1 C 1,6 km/h (1 Bft) 98,31 %
01.01.2016 11:05 -0,1 C 96 % 1028,3 hPa 0,0 l/m 0,0 km/h (0 Bft) N-NW 329 0 min 0,000 mm 0,0 UV-I 74 W/m -0,7 C -0,1 C 1,6 km/h (1 Bft) 97,50 %
01.01.2016 11:10 -0,1 C 96 % 1028,2 hPa 0,0 l/m 0,7 km/h (0 Bft) S-SO 147 0 min 0,000 mm 0,0 UV-I 101 W/m -0,7 C -0,1 C 3,2 km/h (1 Bft) 98,35 %
01.01.2016 11:15 0,0 C 96 % 1028,3 hPa 0,0 l/m 2,2 km/h (1 Bft) S 186 0 min 0,000 mm 0,0 UV-I 117 W/m -0,6 C 0,0 C 4,8 km/h (1 Bft) 100,00 %
01.01.2016 11:20 0,1 C 95 % 1028,3 hPa 0,0 l/m 1,2 km/h (1 Bft) S 186 0 min 0,000 mm 0,0 UV-I 116 W/m -0,6 C 0,1 C 4,8 km/h (1 Bft) 99,15 %
01.01.2016 11:25 0,2 C 95 % 1028,3 hPa 0,0 l/m 2,1 km/h (1 Bft) SW 236 0 min 0,000 mm 0,0 UV-I 110 W/m -0,5 C 0,2 C 3,2 km/h (1 Bft) 96,33 %
01.01.2016 11:30 0,3 C 96 % 1028,2 hPa 0,2 l/m 2,6 km/h (1 Bft) SW 236 0 min 0,000 mm 0,0 UV-I 85 W/m -0,3 C 0,3 C 4,8 km/h (1 Bft) 97,46 %
01.01.2016 11:35 0,3 C 96 % 1028,1 hPa 0,0 l/m 3,2 km/h (1 Bft) W-SW 254 0 min 0,000 mm 0,0 UV-I 86 W/m -0,3 C 0,3 C 4,8 km/h (1 Bft) 97,50 %
01.01.2016 11:40 0,3 C 96 % 1028,2 hPa 0,0 l/m 3,2 km/h (1 Bft) W-SW 247 0 min 0,000 mm 0,0 UV-I 96 W/m -0,3 C 0,3 C 6,4 km/h (2 Bft) 90,35 %
01.01.2016 11:45 0,3 C 96 % 1028,1 hPa 0,2 l/m 4,8 km/h (1 Bft) S-SW 202 0 min 0,000 mm 0,0 UV-I 93 W/m -0,3 C 0,3 C 6,4 km/h (2 Bft) 99,12 %
01.01.2016 11:50 0,3 C 96 % 1027,9 hPa 0,0 l/m 4,8 km/h (1 Bft) S-SW 202 0 min 0,000 mm 0,0 UV-I 87 W/m -0,3 C 0,3 C 8,0 km/h (2 Bft) 100,00 %
01.01.2016 11:55 0,4 C 96 % 1027,9 hPa 0,2 l/m 4,8 km/h (1 Bft) S-SW 202 0 min 0,000 mm 0,0 UV-I 92 W/m -0,2 C 0,4 C 6,4 km/h (2 Bft) 100,00 %
01.01.2016 12:00 0,4 C 96 % 1027,9 hPa 0,2 l/m 6,4 km/h (2 Bft) W-SW 247 0 min 0,025 mm 0,0 UV-I 88 W/m -0,2 C 0,4 C 9,7 km/h (2 Bft) 98,25 %
01.01.2016 12:05 0,6 C 96 % 1027,8 hPa 0,2 l/m 7,5 km/h (2 Bft) W-SW 241 0 min 0,001 mm 0,0 UV-I 80 W/m 0,0 C -0,5 C 11,3 km/h (2 Bft) 95,14 %
01.01.2016 12:10 0,6 C 96 % 1027,7 hPa 0,2 l/m 8,0 km/h (2 Bft) W-SW 238 0 min 0,000 mm 0,0 UV-I 70 W/m 0,0 C -1,0 C 12,9 km/h (3 Bft) 99,15 %
01.01.2016 12:15 0,5 C 96 % 1027,7 hPa 0,0 l/m 5,8 km/h (2 Bft) SW 236 0 min 0,000 mm 0,0 UV-I 47 W/m -0,1 C 0,5 C 9,7 km/h (2 Bft) 99,15 %
01.01.2016 12:20 0,6 C 96 % 1027,8 hPa 0,2 l/m 5,4 km/h (1 Bft) S-SW 194 0 min 0,000 mm 0,0 UV-I 43 W/m 0,0 C 0,6 C 9,7 km/h (2 Bft) 99,15 %
01.01.2016 12:25 0,6 C 96 % 1027,7 hPa 0,0 l/m 4,8 km/h (1 Bft) S-SW 202 0 min 0,000 mm 0,0 UV-I 39 W/m 0,0 C 0,6 C 6,4 km/h (2 Bft) 98,25 %
01.01.2016 12:30 0,6 C 97 % 1027,7 hPa 0,0 l/m 3,2 km/h (1 Bft) W 270 0 min 0,000 mm 0,0 UV-I 39 W/m 0,2 C 0,6 C 6,4 km/h (2 Bft) 97,37 %
01.01.2016 12:35 0,6 C 97 % 1027,6 hPa 0,0 l/m 2,3 km/h (1 Bft) W-SW 243 0 min 0,000 mm 0,0 UV-I 35 W/m 0,2 C 0,6 C 4,8 km/h (1 Bft) 99,44 %
01.01.2016 12:40 0,6 C 97 % 1027,6 hPa 0,0 l/m 2,1 km/h (1 Bft) SW 215 0 min 0,000 mm 0,0 UV-I 44 W/m 0,2 C 0,6 C 4,8 km/h (1 Bft) 97,32 %
01.01.2016 12:45 0,6 C 97 % 1027,5 hPa 0,0 l/m 1,5 km/h (1 Bft) S-SW 213 0 min 0,000 mm 0,0 UV-I 50 W/m 0,2 C 0,6 C 4,8 km/h (1 Bft) 100,00 %
01.01.2016 12:50 0,6 C 97 % 1027,4 hPa 0,0 l/m 1,5 km/h (1 Bft) S-SW 213 0 min 0,000 mm 0,0 UV-I 52 W/m 0,2 C 0,6 C 3,2 km/h (1 Bft) 99,08 %
01.01.2016 12:55 0,7 C 97 % 1027,4 hPa 0,0 l/m 2,7 km/h (1 Bft) W-SW 244 0 min 0,000 mm 0,0 UV-I 62 W/m 0,3 C 0,7 C 4,8 km/h (1 Bft) 99,17 %
01.01.2016 13:00 0,7 C 97 % 1027,4 hPa 0,0 l/m 0,9 km/h (0 Bft) SW 229 0 min 0,025 mm 0,0 UV-I 85 W/m 0,3 C 0,7 C 4,8 km/h (1 Bft) 100,00 %
01.01.2016 13:05 0,7 C 97 % 1027,4 hPa 0,0 l/m 0,6 km/h (0 Bft) SW 229 0 min 0,000 mm 0,0 UV-I 69 W/m 0,3 C 0,7 C 3,2 km/h (1 Bft) 99,15 %
01.01.2016 13:10 0,8 C 97 % 1027,4 hPa 0,0 l/m 0,1 km/h (0 Bft) SW 229 0 min 0,000 mm 0,0 UV-I 57 W/m 0,4 C 0,8 C 1,6 km/h (1 Bft) 99,15 %
01.01.2016 13:15 0,8 C 97 % 1027,4 hPa 0,0 l/m 2,2 km/h (1 Bft) S 189 0 min 0,000 mm 0,0 UV-I 57 W/m 0,4 C 0,8 C 4,8 km/h (1 Bft) 100,00 %
01.01.2016 13:20 0,8 C 97 % 1027,2 hPa 0,0 l/m 1,6 km/h (1 Bft) S 186 0 min 0,000 mm 0,0 UV-I 50 W/m 0,4 C 0,8 C 3,2 km/h (1 Bft) 99,15 %
01.01.2016 13:25 0,9 C 97 % 1027,2 hPa 0,0 l/m 2,5 km/h (1 Bft) S-SW 192 0 min 0,000 mm 0,0 UV-I 38 W/m 0,5 C 0,9 C 6,4 km/h (2 Bft) 98,15 %
01.01.2016 13:30 0,9 C 97 % 1027,2 hPa 0,2 l/m 3,9 km/h (1 Bft) S 178 0 min 0,000 mm 0,0 UV-I 30 W/m 0,5 C 0,9 C 8,0 km/h (2 Bft) 97,46 %
01.01.2016 13:35 1,0 C 97 % 1027,2 hPa 0,0 l/m 3,8 km/h (1 Bft) S-SW 204 0 min 0,000 mm 0,0 UV-I 55 W/m 0,6 C 1,0 C 6,4 km/h (2 Bft) 95,83 %
01.01.2016 13:40 1,1 C 97 % 1027,0 hPa 0,0 l/m 4,1 km/h (1 Bft) S-SW 200 0 min 0,000 mm 0,0 UV-I 74 W/m 0,7 C 1,1 C 8,0 km/h (2 Bft) 96,61 %
01.01.2016 13:45 1,3 C 98 % 1026,9 hPa 0,0 l/m 5,4 km/h (1 Bft) SW 219 0 min 0,000 mm 0,0 UV-I 90 W/m 1,0 C 1,3 C 9,7 km/h (2 Bft) 95,76 %
01.01.2016 13:50 1,3 C 98 % 1026,9 hPa 0,0 l/m 5,5 km/h (1 Bft) S-SW 195 0 min 0,000 mm 0,0 UV-I 110 W/m 1,0 C 1,3 C 9,7 km/h (2 Bft) 96,58 %
01.01.2016 13:55 1,4 C 98 % 1026,9 hPa 0,0 l/m 5,0 km/h (1 Bft) SW 234 0 min 0,000 mm 0,0 UV-I 88 W/m 1,1 C 1,4 C 8,0 km/h (2 Bft) 96,69 %
01.01.2016 14:00 1,4 C 98 % 1026,9 hPa 0,0 l/m 6,0 km/h (2 Bft) SW 215 0 min 0,026 mm 0,0 UV-I 58 W/m 1,1 C 1,4 C 11,3 km/h (2 Bft) 98,17 %
01.01.2016 14:05 1,3 C 98 % 1026,9 hPa 0,0 l/m 6,8 km/h (2 Bft) SW 225 0 min 0,000 mm 0,0 UV-I 64 W/m 1,0 C 0,9 C 11,3 km/h (2 Bft) 97,44 %
01.01.2016 14:10 1,3 C 98 % 1026,9 hPa 0,0 l/m 8,6 km/h (2 Bft) S 177 0 min 0,000 mm 0,0 UV-I 80 W/m 1,0 C -0,8 C 16,1 km/h (3 Bft) 99,17 %
01.01.2016 14:15 1,3 C 98 % 1026,9 hPa 0,0 l/m 7,4 km/h (2 Bft) SW 219 0 min 0,000 mm 0,0 UV-I 71 W/m 1,0 C 0,3 C 12,9 km/h (3 Bft) 97,50 %
01.01.2016 14:20 1,4 C 98 % 1026,9 hPa 0,0 l/m 5,2 km/h (1 Bft) S-SW 205 0 min 0,000 mm 0,0 UV-I 64 W/m 1,1 C 1,4 C 12,9 km/h (3 Bft) 99,15 %
01.01.2016 14:25 1,4 C 98 % 1026,9 hPa 0,0 l/m 4,9 km/h (1 Bft) SW 231 0 min 0,000 mm 0,0 UV-I 57 W/m 1,1 C 1,4 C 11,3 km/h (2 Bft) 97,25 %
01.01.2016 14:30 1,6 C 98 % 1026,9 hPa 0,2 l/m 9,3 km/h (2 Bft) SW 224 0 min 0,000 mm 0,0 UV-I 70 W/m 1,3 C -1,1 C 16,1 km/h (3 Bft) 99,17 %
01.01.2016 14:35 1,5 C 98 % 1026,9 hPa 0,0 l/m 9,1 km/h (2 Bft) SW 231 0 min 0,000 mm 0,0 UV-I 46 W/m 1,2 C -1,1 C 16,1 km/h (3 Bft) 100,00 %
01.01.2016 14:40 1,5 C 98 % 1026,9 hPa 0,0 l/m 9,0 km/h (2 Bft) W-SW 253 0 min 0,000 mm 0,0 UV-I 23 W/m 1,2 C -1,0 C 14,5 km/h (3 Bft) 98,31 %
01.01.2016 14:45 1,4 C 98 % 1026,9 hPa 0,0 l/m 9,1 km/h (2 Bft) W 262 0 min 0,000 mm 0,0 UV-I 24 W/m 1,1 C -1,2 C 14,5 km/h (3 Bft) 100,00 %
01.01.2016 14:50 1,4 C 98 % 1026,9 hPa 0,0 l/m 7,2 km/h (2 Bft) W-NW 286 0 min 0,000 mm 0,0 UV-I 43 W/m 1,1 C 0,6 C 14,5 km/h (3 Bft) 98,35 %
01.01.2016 14:55 1,4 C 98 % 1026,8 hPa 0,0 l/m 8,7 km/h (2 Bft) W-SW 255 0 min 0,000 mm 0,0 UV-I 65 W/m 1,1 C -0,8 C 14,5 km/h (3 Bft) 100,00 %
01.01.2016 15:00 1,4 C 98 % 1026,8 hPa 0,0 l/m 6,1 km/h (2 Bft) W 271 0 min 0,025 mm 0,0 UV-I 40 W/m 1,1 C 1,4 C 12,9 km/h (3 Bft) 98,33 %
01.01.2016 15:05 1,4 C 98 % 1026,8 hPa 0,0 l/m 5,3 km/h (1 Bft) W-SW 250 0 min 0,000 mm 0,0 UV-I 45 W/m 1,1 C 1,4 C 9,7 km/h (2 Bft) 99,17 %
01.01.2016 15:10 1,4 C 98 % 1026,8 hPa 0,0 l/m 6,0 km/h (2 Bft) W 260 0 min 0,000 mm 0,0 UV-I 43 W/m 1,1 C 1,4 C 11,3 km/h (2 Bft) 99,07 %
01.01.2016 15:15 1,4 C 98 % 1026,7 hPa 0,0 l/m 4,2 km/h (1 Bft) W-SW 257 0 min 0,000 mm 0,0 UV-I 35 W/m 1,1 C 1,4 C 9,7 km/h (2 Bft) 100,00 %
01.01.2016 15:20 1,4 C 98 % 1026,7 hPa 0,0 l/m 3,5 km/h (1 Bft) W 263 0 min 0,000 mm 0,0 UV-I 31 W/m 1,1 C 1,4 C 6,4 km/h (2 Bft) 100,00 %
01.01.2016 15:25 1,4 C 98 % 1026,8 hPa 0,0 l/m 2,0 km/h (1 Bft) W-SW 248 0 min 0,000 mm 0,0 UV-I 31 W/m 1,1 C 1,4 C 6,4 km/h (2 Bft) 98,20 %
01.01.2016 15:30 1,4 C 98 % 1026,8 hPa 0,0 l/m 1,3 km/h (1 Bft) W-SW 248 0 min 0,000 mm 0,0 UV-I 31 W/m 1,1 C 1,4 C 3,2 km/h (1 Bft) 99,15 %
01.01.2016 15:35 1,5 C 98 % 1026,8 hPa 0,0 l/m 3,3 km/h (1 Bft) W-SW 252 0 min 0,000 mm 0,0 UV-I 19 W/m 1,2 C 1,5 C 6,4 km/h (2 Bft) 97,48 %
01.01.2016 15:40 1,5 C 98 % 1026,7 hPa 0,0 l/m 4,5 km/h (1 Bft) W 269 0 min 0,000 mm 0,0 UV-I 23 W/m 1,2 C 1,5 C 6,4 km/h (2 Bft) 97,56 %
01.01.2016 15:45 1,5 C 98 % 1026,6 hPa 0,0 l/m 2,7 km/h (1 Bft) W 273 0 min 0,000 mm 0,0 UV-I 20 W/m 1,2 C 1,5 C 6,4 km/h (2 Bft) 96,61 %
01.01.2016 15:50 1,5 C 98 % 1026,6 hPa 0,0 l/m 1,2 km/h (1 Bft) W 273 0 min 0,000 mm 0,0 UV-I 11 W/m 1,2 C 1,5 C 4,8 km/h (1 Bft) 97,44 %
01.01.2016 15:55 1,5 C 98 % 1026,7 hPa 0,0 l/m 1,3 km/h (1 Bft) W 273 0 min 0,000 mm 0,0 UV-I 13 W/m 1,2 C 1,5 C 3,2 km/h (1 Bft) 96,23 %
01.01.2016 16:00 1,5 C 98 % 1026,7 hPa 0,0 l/m 0,2 km/h (0 Bft) W 273 0 min 0,000 mm 0,0 UV-I 7 W/m 1,2 C 1,5 C 1,6 km/h (1 Bft) 96,69 %
01.01.2016 16:05 1,5 C 98 % 1026,6 hPa 0,0 l/m 0,9 km/h (0 Bft) W 261 0 min 0,000 mm 0,0 UV-I 5 W/m 1,2 C 1,5 C 3,2 km/h (1 Bft) 97,44 %
01.01.2016 16:10 1,4 C 98 % 1026,6 hPa 0,0 l/m 2,4 km/h (1 Bft) S-SW 196 0 min 0,000 mm 0,0 UV-I 5 W/m 1,1 C 1,4 C 4,8 km/h (1 Bft) 100,00 %
01.01.2016 16:15 1,5 C 98 % 1026,5 hPa 0,0 l/m 4,3 km/h (1 Bft) SW 222 0 min 0,000 mm 0,0 UV-I 4 W/m 1,2 C 1,5 C 8,0 km/h (2 Bft) 98,33 %
01.01.2016 16:20 1,5 C 98 % 1026,5 hPa 0,0 l/m 4,3 km/h (1 Bft) W-SW 242 0 min 0,000 mm 0,0 UV-I 0 W/m 1,2 C 1,5 C 6,4 km/h (2 Bft) 98,31 %
01.01.2016 16:25 1,5 C 98 % 1026,5 hPa 0,0 l/m 6,6 km/h (2 Bft) S 188 0 min 0,000 mm 0,0 UV-I 0 W/m 1,2 C 1,3 C 11,3 km/h (2 Bft) 97,52 %
01.01.2016 16:30 1,4 C 98 % 1026,5 hPa 0,0 l/m 4,9 km/h (1 Bft) S-SW 201 0 min 0,000 mm 0,0 UV-I 0 W/m 1,1 C 1,4 C 6,4 km/h (2 Bft) 98,29 %
01.01.2016 16:35 1,4 C 98 % 1026,6 hPa 0,0 l/m 2,1 km/h (1 Bft) S-SW 201 0 min 0,000 mm 0,0 UV-I 0 W/m 1,1 C 1,4 C 4,8 km/h (1 Bft) 97,17 %
01.01.2016 16:40 1,4 C 98 % 1026,6 hPa 0,0 l/m 1,4 km/h (1 Bft) W-SW 252 0 min 0,000 mm 0,0 UV-I 0 W/m 1,1 C 1,4 C 3,2 km/h (1 Bft) 99,15 %
01.01.2016 16:45 1,2 C 98 % 1026,6 hPa 0,0 l/m 0,8 km/h (0 Bft) W-SW 252 0 min 0,000 mm 0,0 UV-I 0 W/m 0,9 C 1,2 C 3,2 km/h (1 Bft) 99,15 %
01.01.2016 16:50 1,1 C 98 % 1026,6 hPa 0,0 l/m 1,0 km/h (0 Bft) N 360 0 min 0,000 mm 0,0 UV-I 0 W/m 0,8 C 1,1 C 3,2 km/h (1 Bft) 99,15 %
01.01.2016 16:55 1,1 C 98 % 1026,5 hPa 0,0 l/m 0,2 km/h (0 Bft) N-NO 12 0 min 0,000 mm 0,0 UV-I 0 W/m 0,8 C 1,1 C 1,6 km/h (1 Bft) 96,61 %
01.01.2016 17:00 1,1 C 98 % 1026,6 hPa 0,0 l/m 1,1 km/h (1 Bft) N-NO 12 0 min 0,000 mm 0,0 UV-I 0 W/m 0,8 C 1,1 C 3,2 km/h (1 Bft) 100,00 %
01.01.2016 17:05 1,1 C 98 % 1026,6 hPa 0,0 l/m 2,0 km/h (1 Bft) SO 143 0 min 0,000 mm 0,0 UV-I 0 W/m 0,8 C 1,1 C 4,8 km/h (1 Bft) 100,00 %
01.01.2016 17:10 1,2 C 98 % 1026,6 hPa 0,0 l/m 3,8 km/h (1 Bft) SW 221 0 min 0,000 mm 0,0 UV-I 0 W/m 0,9 C 1,2 C 6,4 km/h (2 Bft) 97,22 %
01.01.2016 17:15 1,2 C 98 % 1026,6 hPa 0,0 l/m 4,2 km/h (1 Bft) S-SW 206 0 min 0,000 mm 0,0 UV-I 0 W/m 0,9 C 1,2 C 6,4 km/h (2 Bft) 100,00 %
01.01.2016 17:20 1,2 C 98 % 1026,6 hPa 0,0 l/m 2,7 km/h (1 Bft) W-SW 244 0 min 0,000 mm 0,0 UV-I 0 W/m 0,9 C 1,2 C 4,8 km/h (1 Bft) 99,15 %
01.01.2016 17:25 1,1 C 98 % 1026,6 hPa 0,0 l/m 1,3 km/h (1 Bft) W-SW 244 0 min 0,000 mm 0,0 UV-I 0 W/m 0,8 C 1,1 C 4,8 km/h (1 Bft) 98,33 %
01.01.2016 17:30 1,1 C 98 % 1026,5 hPa 0,0 l/m 2,0 km/h (1 Bft) W 266 0 min 0,000 mm 0,0 UV-I 0 W/m 0,8 C 1,1 C 4,8 km/h (1 Bft) 99,08 %
01.01.2016 17:35 1,1 C 98 % 1026,5 hPa 0,0 l/m 3,7 km/h (1 Bft) W-SW 254 0 min 0,000 mm 0,0 UV-I 0 W/m 0,8 C 1,1 C 6,4 km/h (2 Bft) 99,17 %
01.01.2016 17:40 1,1 C 98 % 1026,4 hPa 0,0 l/m 2,1 km/h (1 Bft) W 269 0 min 0,000 mm 0,0 UV-I 0 W/m 0,8 C 1,1 C 4,8 km/h (1 Bft) 97,44 %
01.01.2016 17:45 1,1 C 98 % 1026,3 hPa 0,0 l/m 2,0 km/h (1 Bft) S 178 0 min 0,000 mm 0,0 UV-I 0 W/m 0,8 C 1,1 C 4,8 km/h (1 Bft) 95,87 %
01.01.2016 17:50 1,1 C 98 % 1026,3 hPa 0,0 l/m 2,0 km/h (1 Bft) S 175 0 min 0,000 mm 0,0 UV-I 0 W/m 0,8 C 1,1 C 4,8 km/h (1 Bft) 96,58 %
01.01.2016 17:55 1,1 C 98 % 1026,3 hPa 0,0 l/m 2,7 km/h (1 Bft) S 175 0 min 0,000 mm 0,0 UV-I 0 W/m 0,8 C 1,1 C 4,8 km/h (1 Bft) 98,31 %
01.01.2016 18:00 1,1 C 98 % 1026,3 hPa 0,0 l/m 3,3 km/h (1 Bft) S 184 0 min 0,000 mm 0,0 UV-I 0 W/m 0,8 C 1,1 C 4,8 km/h (1 Bft) 96,61 %
01.01.2016 18:05 1,1 C 98 % 1026,3 hPa 0,0 l/m 3,8 km/h (1 Bft) S 180 0 min 0,000 mm 0,0 UV-I 0 W/m 0,8 C 1,1 C 6,4 km/h (2 Bft) 96,67 %
01.01.2016 18:10 1,0 C 98 % 1026,3 hPa 0,0 l/m 4,1 km/h (1 Bft) S-SW 194 0 min 0,000 mm 0,0 UV-I 0 W/m 0,7 C 1,0 C 4,8 km/h (1 Bft) 96,23 %
01.01.2016 18:15 1,0 C 98 % 1026,2 hPa 0,0 l/m 4,8 km/h (1 Bft) S 191 0 min 0,000 mm 0,0 UV-I 0 W/m 0,7 C 1,0 C 8,0 km/h (2 Bft) 98,37 %
01.01.2016 18:20 1,0 C 98 % 1026,2 hPa 0,0 l/m 4,1 km/h (1 Bft) S 181 0 min 0,000 mm 0,0 UV-I 0 W/m 0,7 C 1,0 C 6,4 km/h (2 Bft) 99,08 %
01.01.2016 18:25 1,1 C 98 % 1026,2 hPa 0,0 l/m 0,8 km/h (0 Bft) S 181 0 min 0,000 mm 0,0 UV-I 0 W/m 0,8 C 1,1 C 3,2 km/h (1 Bft) 100,00 %
01.01.2016 18:30 1,1 C 98 % 1026,1 hPa 0,0 l/m 0,1 km/h (0 Bft) S 181 0 min 0,000 mm 0,0 UV-I 0 W/m 0,8 C 1,1 C 1,6 km/h (1 Bft) 100,00 %
01.01.2016 18:35 1,1 C 98 % 1026,1 hPa 0,0 l/m 0,5 km/h (0 Bft) S 181 0 min 0,000 mm 0,0 UV-I 0 W/m 0,8 C 1,1 C 1,6 km/h (1 Bft) 98,35 %
01.01.2016 18:40 1,1 C 98 % 1026,1 hPa 0,0 l/m 2,2 km/h (1 Bft) S 181 0 min 0,000 mm 0,0 UV-I 0 W/m 0,8 C 1,1 C 4,8 km/h (1 Bft) 98,31 %
01.01.2016 18:45 1,1 C 98 % 1026,0 hPa 0,0 l/m 2,7 km/h (1 Bft) S 181 0 min 0,000 mm 0,0 UV-I 0 W/m 0,8 C 1,1 C 4,8 km/h (1 Bft) 99,15 %
01.01.2016 18:50 1,1 C 98 % 1025,9 hPa 0,0 l/m 2,6 km/h (1 Bft) S 181 0 min 0,000 mm 0,0 UV-I 0 W/m 0,8 C 1,1 C 4,8 km/h (1 Bft) 99,15 %
01.01.2016 18:55 1,1 C 97 % 1025,9 hPa 0,0 l/m 2,5 km/h (1 Bft) S 181 0 min 0,000 mm 0,0 UV-I 0 W/m 0,7 C 1,1 C 4,8 km/h (1 Bft) 97,44 %
01.01.2016 19:00 1,1 C 97 % 1025,8 hPa 0,0 l/m 2,3 km/h (1 Bft) S 181 0 min 0,000 mm 0,0 UV-I 0 W/m 0,7 C 1,1 C 4,8 km/h (1 Bft) 98,17 %
01.01.2016 19:05 1,1 C 97 % 1025,8 hPa 0,0 l/m 2,0 km/h (1 Bft) S 181 0 min 0,000 mm 0,0 UV-I 0 W/m 0,7 C 1,1 C 3,2 km/h (1 Bft) 100,00 %
01.01.2016 19:10 1,2 C 97 % 1025,9 hPa 0,0 l/m 0,7 km/h (0 Bft) S 181 0 min 0,000 mm 0,0 UV-I 0 W/m 0,8 C 1,2 C 3,2 km/h (1 Bft) 98,29 %
01.01.2016 19:15 1,3 C 97 % 1025,9 hPa 0,0 l/m 1,9 km/h (1 Bft) NW 309 0 min 0,000 mm 0,0 UV-I 0 W/m 0,9 C 1,3 C 6,4 km/h (2 Bft) 96,61 %
01.01.2016 19:20 1,6 C 97 % 1025,8 hPa 0,0 l/m 3,8 km/h (1 Bft) W-NW 295 0 min 0,000 mm 0,0 UV-I 0 W/m 1,2 C 1,6 C 6,4 km/h (2 Bft) 100,00 %
01.01.2016 19:25 1,6 C 96 % 1025,8 hPa 0,0 l/m 1,1 km/h (1 Bft) N-NW 339 0 min 0,000 mm 0,0 UV-I 0 W/m 1,0 C 1,6 C 4,8 km/h (1 Bft) 98,29 %
01.01.2016 19:30 1,2 C 96 % 1025,7 hPa 0,0 l/m 2,6 km/h (1 Bft) N-NO 22 0 min 0,000 mm 0,0 UV-I 0 W/m 0,6 C 1,2 C 6,4 km/h (2 Bft) 99,06 %
01.01.2016 19:35 1,1 C 96 % 1025,7 hPa 0,0 l/m 4,2 km/h (1 Bft) N-NO 24 0 min 0,000 mm 0,0 UV-I 0 W/m 0,5 C 1,1 C 8,0 km/h (2 Bft) 98,36 %
01.01.2016 19:40 1,1 C 97 % 1025,6 hPa 0,0 l/m 7,0 km/h (2 Bft) N-NO 31 0 min 0,000 mm 0,0 UV-I 0 W/m 0,7 C 0,5 C 11,3 km/h (2 Bft) 96,58 %
01.01.2016 19:45 1,0 C 97 % 1025,6 hPa 0,0 l/m 5,9 km/h (2 Bft) N-NO 13 0 min 0,000 mm 0,0 UV-I 0 W/m 0,6 C 1,0 C 11,3 km/h (2 Bft) 96,61 %
01.01.2016 19:50 0,9 C 97 % 1025,6 hPa 0,0 l/m 6,8 km/h (2 Bft) N-NO 17 0 min 0,000 mm 0,0 UV-I 0 W/m 0,5 C 0,5 C 12,9 km/h (3 Bft) 96,67 %
01.01.2016 19:55 0,8 C 97 % 1025,6 hPa 0,0 l/m 4,7 km/h (1 Bft) N 9 0 min 0,000 mm 0,0 UV-I 0 W/m 0,4 C 0,8 C 11,3 km/h (2 Bft) 97,25 %
01.01.2016 20:00 0,8 C 97 % 1025,6 hPa 0,0 l/m 5,2 km/h (1 Bft) N-NO 32 0 min 0,000 mm 0,0 UV-I 0 W/m 0,4 C 0,8 C 11,3 km/h (2 Bft) 96,64 %
01.01.2016 20:05 0,7 C 97 % 1025,5 hPa 0,0 l/m 6,7 km/h (2 Bft) N-NO 23 0 min 0,000 mm 0,0 UV-I 0 W/m 0,3 C 0,4 C 11,3 km/h (2 Bft) 96,75 %
01.01.2016 20:10 0,6 C 97 % 1025,5 hPa 0,0 l/m 5,0 km/h (1 Bft) NO 43 0 min 0,000 mm 0,0 UV-I 0 W/m 0,2 C 0,6 C 12,9 km/h (3 Bft) 95,80 %
01.01.2016 20:15 0,6 C 97 % 1025,6 hPa 0,0 l/m 4,3 km/h (1 Bft) NO 40 0 min 0,000 mm 0,0 UV-I 0 W/m 0,2 C 0,6 C 6,4 km/h (2 Bft) 95,73 %
01.01.2016 20:20 0,5 C 97 % 1025,5 hPa 0,0 l/m 7,1 km/h (2 Bft) NO 39 0 min 0,000 mm 0,0 UV-I 0 W/m 0,1 C -0,2 C 14,5 km/h (3 Bft) 100,00 %
01.01.2016 20:25 0,5 C 98 % 1025,3 hPa 0,0 l/m 6,3 km/h (2 Bft) N-NO 26 0 min 0,000 mm 0,0 UV-I 0 W/m 0,2 C 0,5 C 11,3 km/h (2 Bft) 99,15 %
01.01.2016 20:30 0,4 C 98 % 1025,3 hPa 0,0 l/m 4,7 km/h (1 Bft) NO 42 0 min 0,000 mm 0,0 UV-I 0 W/m 0,1 C 0,4 C 8,0 km/h (2 Bft) 99,17 %
01.01.2016 20:35 0,4 C 98 % 1025,2 hPa 0,0 l/m 2,8 km/h (1 Bft) N-NO 32 0 min 0,000 mm 0,0 UV-I 0 W/m 0,1 C 0,4 C 6,4 km/h (2 Bft) 98,35 %
01.01.2016 20:40 0,3 C 98 % 1025,2 hPa 0,0 l/m 6,0 km/h (2 Bft) N-NO 18 0 min 0,000 mm 0,0 UV-I 0 W/m 0,0 C 0,3 C 12,9 km/h (3 Bft) 99,15 %
01.01.2016 20:45 0,4 C 98 % 1025,1 hPa 0,0 l/m 8,8 km/h (2 Bft) N-NO 30 0 min 0,000 mm 0,0 UV-I 0 W/m 0,1 C -2,0 C 14,5 km/h (3 Bft) 99,15 %
01.01.2016 20:50 0,4 C 98 % 1025,2 hPa 0,0 l/m 8,4 km/h (2 Bft) NO 36 0 min 0,000 mm 0,0 UV-I 0 W/m 0,1 C -1,6 C 16,1 km/h (3 Bft) 99,08 %
01.01.2016 20:55 0,4 C 98 % 1025,1 hPa 0,0 l/m 8,8 km/h (2 Bft) NO 34 0 min 0,000 mm 0,0 UV-I 0 W/m 0,1 C -2,0 C 16,1 km/h (3 Bft) 99,15 %
01.01.2016 21:00 0,4 C 98 % 1025,1 hPa 0,0 l/m 8,7 km/h (2 Bft) O-NO 65 0 min 0,000 mm 0,0 UV-I 0 W/m 0,1 C -1,9 C 14,5 km/h (3 Bft) 97,44 %
01.01.2016 21:05 0,4 C 98 % 1025,1 hPa 0,0 l/m 7,8 km/h (2 Bft) NO 40 0 min 0,000 mm 0,0 UV-I 0 W/m 0,1 C -1,0 C 12,9 km/h (3 Bft) 99,15 %
01.01.2016 21:10 0,4 C 98 % 1025,0 hPa 0,0 l/m 6,9 km/h (2 Bft) NO 35 0 min 0,000 mm 0,0 UV-I 0 W/m 0,1 C -0,1 C 11,3 km/h (2 Bft) 100,00 %
01.01.2016 21:15 0,4 C 98 % 1024,9 hPa 0,0 l/m 8,7 km/h (2 Bft) N-NO 33 0 min 0,000 mm 0,0 UV-I 0 W/m 0,1 C -1,9 C 12,9 km/h (3 Bft) 100,00 %
01.01.2016 21:20 0,4 C 98 % 1024,8 hPa 0,0 l/m 7,4 km/h (2 Bft) N-NO 32 0 min 0,000 mm 0,0 UV-I 0 W/m 0,1 C -0,6 C 11,3 km/h (2 Bft) 99,08 %
01.01.2016 21:25 0,4 C 98 % 1024,8 hPa 0,0 l/m 7,8 km/h (2 Bft) N 9 0 min 0,000 mm 0,0 UV-I 0 W/m 0,1 C -1,0 C 12,9 km/h (3 Bft) 98,29 %
01.01.2016 21:30 0,4 C 98 % 1024,7 hPa 0,0 l/m 7,6 km/h (2 Bft) N-NO 26 0 min 0,000 mm 0,0 UV-I 0 W/m 0,1 C -0,8 C 12,9 km/h (3 Bft) 99,15 %
01.01.2016 21:35 0,4 C 98 % 1024,7 hPa 0,0 l/m 8,0 km/h (2 Bft) NO 46 0 min 0,000 mm 0,0 UV-I 0 W/m 0,1 C -1,2 C 12,9 km/h (3 Bft) 99,19 %
01.01.2016 21:40 0,4 C 98 % 1024,7 hPa 0,0 l/m 5,9 km/h (2 Bft) NO 46 0 min 0,000 mm 0,0 UV-I 0 W/m 0,1 C 0,4 C 9,7 km/h (2 Bft) 98,31 %
01.01.2016 21:45 0,4 C 98 % 1024,7 hPa 0,0 l/m 6,9 km/h (2 Bft) NO 53 0 min 0,000 mm 0,0 UV-I 0 W/m 0,1 C -0,1 C 12,9 km/h (3 Bft) 96,61 %
01.01.2016 21:50 0,4 C 98 % 1024,6 hPa 0,0 l/m 7,6 km/h (2 Bft) O-NO 71 0 min 0,000 mm 0,0 UV-I 0 W/m 0,1 C -0,8 C 12,9 km/h (3 Bft) 96,40 %
01.01.2016 21:55 0,4 C 98 % 1024,7 hPa 0,0 l/m 6,3 km/h (2 Bft) O-NO 65 0 min 0,000 mm 0,0 UV-I 0 W/m 0,1 C 0,4 C 11,3 km/h (2 Bft) 95,04 %
01.01.2016 22:00 0,4 C 98 % 1024,6 hPa 0,0 l/m 6,4 km/h (2 Bft) O-NO 61 0 min 0,000 mm 0,0 UV-I 0 W/m 0,1 C 0,4 C 9,7 km/h (2 Bft) 96,33 %
01.01.2016 22:05 0,4 C 98 % 1024,5 hPa 0,0 l/m 10,1 km/h (2 Bft) NO 36 0 min 0,000 mm 0,0 UV-I 0 W/m 0,1 C -3,1 C 16,1 km/h (3 Bft) 97,67 %
01.01.2016 22:10 0,3 C 98 % 1024,4 hPa 0,0 l/m 9,3 km/h (2 Bft) O-NO 69 0 min 0,000 mm 0,0 UV-I 0 W/m 0,0 C -2,5 C 14,5 km/h (3 Bft) 95,41 %
01.01.2016 22:15 0,3 C 98 % 1024,4 hPa 0,0 l/m 8,7 km/h (2 Bft) O-NO 59 0 min 0,000 mm 0,0 UV-I 0 W/m 0,0 C -2,0 C 12,9 km/h (3 Bft) 97,46 %
01.01.2016 22:20 0,3 C 98 % 1024,4 hPa 0,0 l/m 7,9 km/h (2 Bft) O-NO 78 0 min 0,000 mm 0,0 UV-I 0 W/m 0,0 C -1,2 C 12,9 km/h (3 Bft) 99,17 %
01.01.2016 22:25 0,3 C 98 % 1024,2 hPa 0,0 l/m 7,3 km/h (2 Bft) O-NO 73 0 min 0,000 mm 0,0 UV-I 0 W/m 0,0 C -0,6 C 12,9 km/h (3 Bft) 99,15 %
01.01.2016 22:30 0,2 C 98 % 1024,1 hPa 0,0 l/m 6,4 km/h (2 Bft) O 82 0 min 0,000 mm 0,0 UV-I 0 W/m -0,1 C 0,2 C 12,9 km/h (3 Bft) 99,17 %
01.01.2016 22:35 0,2 C 98 % 1024,1 hPa 0,0 l/m 5,1 km/h (1 Bft) O-NO 74 0 min 0,000 mm 0,0 UV-I 0 W/m -0,1 C 0,2 C 8,0 km/h (2 Bft) 100,00 %
01.01.2016 22:40 0,2 C 98 % 1024,1 hPa 0,0 l/m 6,6 km/h (2 Bft) O-NO 73 0 min 0,000 mm 0,0 UV-I 0 W/m -0,1 C 0,0 C 12,9 km/h (3 Bft) 100,00 %
01.01.2016 22:45 0,2 C 98 % 1024,0 hPa 0,0 l/m 5,3 km/h (1 Bft) O-NO 67 0 min 0,000 mm 0,0 UV-I 0 W/m -0,1 C 0,2 C 9,7 km/h (2 Bft) 99,17 %
01.01.2016 22:50 0,2 C 98 % 1023,9 hPa 0,0 l/m 6,3 km/h (2 Bft) NO 51 0 min 0,000 mm 0,0 UV-I 0 W/m -0,1 C 0,2 C 9,7 km/h (2 Bft) 100,00 %
01.01.2016 22:55 0,2 C 98 % 1023,9 hPa 0,0 l/m 7,1 km/h (2 Bft) O-NO 63 0 min 0,000 mm 0,0 UV-I 0 W/m -0,1 C -0,5 C 12,9 km/h (3 Bft) 99,15 %
01.01.2016 23:00 0,2 C 98 % 1023,7 hPa 0,0 l/m 8,3 km/h (2 Bft) NO 53 0 min 0,000 mm 0,0 UV-I 0 W/m -0,1 C -1,7 C 14,5 km/h (3 Bft) 100,00 %
01.01.2016 23:05 0,1 C 98 % 1023,7 hPa 0,0 l/m 10,3 km/h (2 Bft) O-NO 61 0 min 0,000 mm 0,0 UV-I 0 W/m -0,2 C -3,6 C 14,5 km/h (3 Bft) 99,19 %
01.01.2016 23:10 0,1 C 98 % 1023,7 hPa 0,0 l/m 8,9 km/h (2 Bft) NO 38 0 min 0,000 mm 0,0 UV-I 0 W/m -0,2 C -2,4 C 12,9 km/h (3 Bft) 99,15 %
01.01.2016 23:15 0,1 C 98 % 1023,6 hPa 0,0 l/m 7,8 km/h (2 Bft) NO 51 0 min 0,000 mm 0,0 UV-I 0 W/m -0,2 C -1,3 C 12,9 km/h (3 Bft) 98,17 %
01.01.2016 23:20 0,1 C 98 % 1023,6 hPa 0,0 l/m 7,0 km/h (2 Bft) O-NO 59 0 min 0,000 mm 0,0 UV-I 0 W/m -0,2 C -0,5 C 11,3 km/h (2 Bft) 99,17 %
01.01.2016 23:25 0,1 C 98 % 1023,5 hPa 0,0 l/m 7,6 km/h (2 Bft) O-NO 71 0 min 0,000 mm 0,0 UV-I 0 W/m -0,2 C -1,1 C 12,9 km/h (3 Bft) 97,44 %
01.01.2016 23:30 0,1 C 98 % 1023,4 hPa 0,0 l/m 6,8 km/h (2 Bft) O-NO 61 0 min 0,000 mm 0,0 UV-I 0 W/m -0,2 C -0,3 C 9,7 km/h (2 Bft) 99,15 %
01.01.2016 23:35 0,1 C 98 % 1023,3 hPa 0,0 l/m 6,3 km/h (2 Bft) NO 46 0 min 0,000 mm 0,0 UV-I 0 W/m -0,2 C 0,1 C 12,9 km/h (3 Bft) 100,00 %
01.01.2016 23:40 0,1 C 98 % 1023,2 hPa 0,0 l/m 8,4 km/h (2 Bft) O-NO 62 0 min 0,000 mm 0,0 UV-I 0 W/m -0,2 C -1,9 C 16,1 km/h (3 Bft) 100,00 %
01.01.2016 23:45 0,1 C 98 % 1023,2 hPa 0,0 l/m 7,7 km/h (2 Bft) O-NO 66 0 min 0,000 mm 0,0 UV-I 0 W/m -0,2 C -1,2 C 12,9 km/h (3 Bft) 98,17 %
01.01.2016 23:50 0,1 C 98 % 1023,2 hPa 0,0 l/m 6,4 km/h (2 Bft) NO 55 0 min 0,000 mm 0,0 UV-I 0 W/m -0,2 C 0,1 C 12,9 km/h (3 Bft) 97,50 %
01.01.2016 23:55 0,1 C 98 % 1023,2 hPa 0,0 l/m 10,4 km/h (2 Bft) N-NO 13 0 min 0,000 mm 0,0 UV-I 0 W/m -0,2 C -3,7 C 19,3 km/h (3 Bft) 97,46 %
_ Min-Zeit 02:00 00:00 23:40 - 00:05 - - - - - - 00:00 23:55 00:05 11:40
Minimum _ -1,5 C 92 % 1023,2 hPa - 0,0 km/h (0 Bft) - - - - - - -2,5 C -3,7 C 0,0 km/h (0 Bft) 90,35 %
_ Max-Zeit 19:25 13:45 09:15 11:30 23:55 - - 00:00 14:00 00:00 11:15 14:30 19:20 23:55 00:15
Maximum _ 1,7 C 98 % 1028,4 hPa 0,2 l/m 10,4 km/h
N-NO (2 Bft)
- - 0 min 0,026 mm 0,0 UV-I 117 W/m 1,3 C 1,6 C 19,3 km/h
NO (3 Bft)
100,00 %
Durchschnitt _ -0,0 C 96 % 1026,9 hPa #1,8 l/m 2,9 km/h (1 Bft) O-NO - #0 min. #0,127 mm 0,0 UV-I 51 W/m -0,5 C -0,3 C 5,7 km/h (1 Bft) 98,44 %